Location: Vancouver
(49.2500°N, 123.1330°W)
Time: 13:37:09
(UTC-07:00)

Daily predictions for brighter satellites

Satellite Brightness Start Highest point End
(mag) Time Altitude Azimuth Time Altitude Azimuth Time Altitude Azimuth
ERS-1 Rocket 3.6 20:30:13 10° SE 20:34:49 38° ENE 20:39:26 10° N
NOSS 2-1 (D) 3.9 20:31:06 10° SW 20:35:05 69° NW 20:39:53 10° NE
Helios 1B rocket 3.1 20:31:46 10° N 20:35:52 63° WNW 20:39:55 10° SSW
NOSS 2-1 (C) 3.9 20:32:08 10° SW 20:36:07 69° NW 20:40:55 10° NE
EO 1 Delta rocket 4.0 20:32:19 10° NNE 20:36:55 57° E 20:42:06 10° S
Okean 2 4.5 20:33:46 10° NNW 20:37:50 50° W 20:41:51 10° S
CZ-2D R/B 3.4 20:37:13 10° SSE 20:41:06 86° WSW 20:45:02 10° NNW
Cosmos 1544 Rocket 4.1 20:38:13 10° SSW 20:42:36 66° WNW 20:47:02 10° N
FENGYUN 3A 3.8 20:37:22 10° SSE 20:42:43 83° WSW 20:48:07 10° NNW
CZ-4 DEB 3.5 20:40:53 10° SE 20:43:46 34° ENE 20:46:41 10° N
Cosmos 1656 4.0 20:39:29 10° S 20:44:46 44° ESE 20:50:01 10° NE
Cosmos 2263 Rocket 3.9 20:42:12 10° N 20:46:01 18° NE 20:49:49 10° E
Cosmos 1898 Rocket 3.5 20:40:48 10° NNW 20:46:10 76° ENE 20:51:25 10° SSE
Meteor 1-29 4.1 20:42:57 10° N 20:46:19 49° WNW 20:49:40 10° SSW
Resurs 01 Rocket 3.5 20:43:09 10° SSW 20:47:11 34° W 20:51:15 10° NNW
Cosmos 1500 3.8 20:44:08 10° SSE 20:47:33 34° E 20:51:00 10° NNE
Cosmos 2227 Rocket 3.3 20:45:09 10° NW 20:50:31 45° WSW 20:55:52 10° S
Cosmos 1340 3.7 20:48:53 10° N 20:52:14 28° ENE 20:55:15 12° SE
NOSS 2-1 (E) 4.4 20:48:14 10° WSW 20:52:16 57° NW 20:57:13 10° NE
Cosmos 1934 Rocket 4.3 20:47:06 10° SSW 20:53:16 73° WNW 20:59:33 10° N
Cosmos 2322 Rocket 3.9 20:58:39 11° E 20:59:14 11° E 21:00:40 10° E
Cosmos 1153 Rocket 4.5 20:54:07 10° S 21:00:13 68° E 21:06:19 10° NNE
USA 186 2.3 20:58:17 10° S 21:01:13 52° W 21:03:57 10° NNW
Cosmos 468 Rocket 4.2 20:58:43 10° S 21:03:36 47° ESE 21:08:31 10° NNE
Meteor 1-12 Rocket 4.3 20:58:17 10° S 21:04:02 84° E 21:09:58 10° NNE
Cosmos 1939 Rocket 3.2 21:01:06 10° SSE 21:05:08 51° ENE 21:09:12 10° N
Cosmos 2297 Rocket 3.2 21:00:12 10° NW 21:05:37 47° WSW 21:11:00 10° S
Cosmos 1515 3.8 21:03:23 10° NNW 21:07:15 78° W 21:11:05 10° S
ALOS 3.4 21:03:00 10° S 21:07:29 46° W 21:12:01 10° NNW
Cosmos 841 Rocket 4.5 21:05:28 10° SSE 21:09:39 25° E 21:13:51 10° NE
USA 215 3.8 21:06:24 10° E 21:12:43 53° NNE 21:19:01 10° WNW
Cosmos 972 Rocket 4.5 21:08:19 10° NNW 21:14:12 88° ENE 21:20:48 10° SSE
Cosmos 2227 4.3 21:08:59 10° NNW 21:14:44 64° ENE 21:19:24 15° SE
Cosmos 1814 Rocket 4.2 21:10:13 10° S 21:15:21 51° ESE 21:20:29 10° NNE
Cosmos 1802 Rocket 4.3 21:10:33 10° SSE 21:16:38 48° E 21:22:47 10° NNE
Cosmos 1825 Rocket 3.6 21:15:46 10° N 21:20:11 64° ENE 21:23:59 14° SSE
Tiangong 1 2.9 21:19:25 10° WSW 21:21:41 19° SSW 21:22:45 16° SSE
ASTEX 1 4.1 21:17:28 10° NNE 21:22:00 33° E 21:25:07 17° SE
Cosmos 2016 Rocket 4.2 21:20:44 10° SSE 21:26:33 47° E 21:32:28 10° NNE
Cosmos 1743 2.8 21:23:44 10° S 21:27:33 54° E 21:31:24 10° NNE
RESURS DK-1 2.9 21:23:56 10° NW 21:28:00 55° WSW 21:31:31 13° S
SL-24 R/B - RUBIN 2 4.4 21:22:28 10° SW 21:28:32 85° SE 21:35:11 10° NE
ATLAS CENTAUR R/B 4.4 21:26:34 10° WNW 21:30:00 18° NNW 21:33:21 10° NNE
Cosmos 1953 Rocket 3.6 21:26:48 10° N 21:31:13 62° ENE 21:34:19 19° SSE
H-2A R/B 1.9 21:35:03 21° SSE 21:37:45 73° ENE 21:41:56 10° N
Cosmos 2173 Rocket 4.0 21:32:20 10° S 21:38:41 77° E 21:45:01 10° NNE
Iridium 4 Rocket 4.4 21:36:11 10° NNW 21:41:05 46° W 21:45:32 10° SSW
BREEZE-M DEB (TANK) 4.0 21:40:25 10° W 21:43:59 64° SSW 21:50:26 21° ESE
Cosmos 2228 3.9 21:44:12 28° ESE 21:44:51 29° E 21:48:34 10° NNE
Cosmos 1697 Rocket 2.7 21:39:25 10° SSW 21:45:05 89° WNW 21:50:47 10° NNE
Cosmos 1937 Rocket 4.3 21:42:29 10° NNW 21:47:32 49° WSW 21:52:28 11° S
Envisat 3.2 21:43:51 12° S 21:48:32 70° WSW 21:53:37 10° NNW
Cosmos 1758 Rocket 3.4 21:45:27 10° N 21:49:50 81° E 21:52:16 26° SSE
Nimbus 7 Rocket 4.5 21:45:24 10° NNE 21:51:26 62° ESE 21:57:25 10° S
Cosmos 2100 Rocket 4.1 21:47:57 10° SSW 21:54:14 79° W 22:00:29 10° N
PSLV R/B 3.1 21:54:54 56° ESE 21:55:12 60° ENE 21:58:14 10° N
Cosmos 1842 3.1 21:51:24 10° N 21:55:20 76° E 21:56:49 36° SSE
SL-16 R/B 3.0 21:54:57 28° ESE 21:55:45 29° ESE 22:00:36 10° NE
deb Chang Zheng 4 3.5 21:51:30 10° NNE 21:55:58 68° ESE 21:59:15 18° S
NOAA 11 4.4 21:55:11 29° SE 21:57:55 57° ENE 22:03:16 10° N
CZ-4B R/B 4.1 21:55:32 10° NE 21:59:45 30° E 21:59:59 30° ESE
Tsikada Rocket 4.0 21:53:50 10° N 22:00:17 71° ENE 22:04:10 25° SSE
Lacrosse 5 3.4 21:56:09 10° WNW 22:00:21 27° SW 22:03:18 16° S
ARGOS 3.3 21:57:54 30° SE 22:00:28 59° ENE 22:05:47 10° N
SL-19 R/B 4.5 21:57:40 10° NNE 22:02:56 44° E 22:04:48 32° SE
Cosmos 1707 4.4 22:00:47 10° NNE 22:03:39 20° ENE 22:03:39 20° ENE
Cosmos 2061 Rocket 4.2 21:58:35 10° SSW 22:04:52 73° W 22:11:08 10° N
Cosmos 1980 Rocket 2.1 22:02:58 10° SSW 22:08:40 87° ESE 22:14:25 10° NNE
H-2A R/B 2.7 22:08:08 32° E 22:09:26 38° ENE 22:13:58 10° N
Cosmos 2360 Rocket 4.1 22:11:52 13° ENE 22:11:52 13° ENE 22:13:07 10° ENE
SPOT 5 3.1 22:07:53 23° S 22:10:55 67° WSW 22:15:39 10° NNW
CZ-4 SHROUD 3.0 22:11:39 88° E 22:11:40 88° ENE 22:14:46 10° NNW
Cosmos 1666 2.5 22:10:53 46° S 22:11:56 81° E 22:15:45 10° NNE
MetOp-B 4.2 22:09:33 25° S 22:12:44 76° WSW 22:18:07 10° NNW
ERS-1 Rocket 4.4 22:09:07 10° SSW 22:13:38 33° W 22:18:11 10° NNW
Cosmos 332 Rocket 4.5 22:14:33 35° E 22:14:33 35° E 22:18:43 10° NE
Landsat 7 4.2 22:17:54 42° ESE 22:18:55 49° ENE 22:23:31 10° N
Cosmos 1816 Rocket 4.5 22:12:51 10° N 22:19:16 77° E 22:22:19 33° SSE
Cosmos 836 Rocket 4.4 22:17:07 23° S 22:20:24 67° ESE 22:25:41 10° NNE
Cosmos 2058 Rocket 3.1 22:18:15 29° S 22:20:30 88° W 22:25:04 10° N
Cosmos 1606 Rocket 4.3 22:20:42 11° SSW 22:24:46 53° WNW 22:29:09 10° N
YAOGAN 6 3.4 22:25:12 38° SW 22:26:12 49° W 22:29:51 10° NNW
Cosmos 1725 Rocket 3.9 22:22:33 21° S 22:26:57 87° E 22:33:16 10° N
Cosmos 1763 Rocket 3.6 22:22:27 10° SSW 22:27:32 71° WNW 22:32:37 10° NNE
SPOT 1/Viking Rocket 3.6 22:26:33 37° S 22:28:40 80° WSW 22:33:55 10° NNW
Cosmos 2098 Rocket 3.9 22:22:30 12° S 22:28:42 83° W 22:34:08 10° N
Cosmos 2263 Rocket 2.1 22:25:23 10° NNW 22:30:59 72° ENE 22:32:32 48° SE
Terra 2.1 22:33:41 47° E 22:34:13 49° ENE 22:38:50 10° N
Cosmos 1125 Rocket 3.8 22:29:19 10° NNW 22:34:26 60° WSW 22:36:17 38° S
CARTOSAT-1 3.9 22:35:59 49° ENE 22:36:04 49° ENE 22:40:16 10° N
Meteor 2-5 Rocket 3.8 22:30:40 10° N 22:36:35 65° ENE 22:38:07 48° SE
CZ-4 R/B 3.9 22:33:22 10° NNE 22:38:00 53° E 22:38:00 53° E
Cosmos 1441 Rocket 4.5 22:36:11 10° N 22:39:05 30° NE 22:39:05 30° NE
Cosmos 2322 Rocket 2.1 22:40:22 43° S 22:42:11 68° ESE 22:47:47 10° NNE
Meteor 1-15 Rocket 4.4 22:38:38 23° SSW 22:42:24 80° WNW 22:48:18 10° N
BREEZE-M DEB (TANK) 3.1 22:34:13 10° WSW 22:43:13 53° S 22:43:19 53° SSE
DELTA 2 DEB (DPAF) 4.0 22:43:36 69° E 22:43:52 71° ENE 22:48:21 10° N
Genesis I 3.4 22:43:28 10° NW 22:47:08 64° NNE 22:47:08 64° NNE
Cosmos 405 Rocket 3.0 22:45:38 10° NNW 22:49:08 61° WNW 22:49:08 61° WNW
Cosmos 2233 Rocket 3.9 22:48:18 41° S 22:50:37 83° E 22:56:54 10° N
Cosmos 841 Rocket 4.2 22:46:06 10° SW 22:51:13 53° WNW 22:56:20 10° NNE
Meteor 1-24 Rocket 4.1 22:45:24 10° N 22:51:20 53° ENE 22:52:20 48° ESE
USA 215 3.2 22:53:25 47° SE 22:55:32 83° SW 23:02:07 10° WNW
Cosmos 1812 Rocket 3.7 22:58:22 61° NE 22:58:22 61° NE 23:02:06 10° NNE
Cosmos 540 Rocket 3.3 23:02:06 72° S 23:02:39 86° ESE 23:07:49 10° NNE
Spot 4 3.8 23:03:12 66° ENE 23:03:12 66° ENE 23:07:55 10° N
IGS 5A 3.7 23:05:04 66° N 23:05:04 66° N 23:08:42 10° NNW
CZ-4C R/B 3.7 23:09:13 68° W 23:09:13 68° W 23:13:28 10° NNW
Cosmos 2034 Rocket 4.3 23:14:56 47° E 23:14:56 47° E 23:20:46 10° NNE
Cosmos 2278 Rocket 3.6 23:16:02 10° NNW 23:20:53 28° NE 23:22:09 25° ENE
DMSP B5D2-2 4.0 23:21:39 10° NNE 23:26:53 86° ENE 23:26:53 86° ENE
BREEZE-M DEB (TANK) 4.3 23:22:20 10° WNW 23:36:16 43° SW 23:36:51 42° SW
Cosmos 1464 Rocket 3.9 23:36:22 73° S 23:37:02 87° E 23:43:26 10° N
GP-B 3.9 23:33:11 10° N 23:37:09 47° WNW 23:37:09 47° WNW
Cosmos 1513 Rocket 4.3 23:38:42 75° ESE 23:38:53 75° E 23:45:11 10° NNE
SL-16 R/B 2.8 23:36:43 28° WSW 23:39:34 53° NW 23:45:10 10° NNE
Cosmos 1707 4.4 23:36:15 10° NNW 23:38:54 32° WNW 23:38:54 32° WNW
Okean 3 Rocket 4.5 23:38:21 10° NNW 23:41:54 45° WNW 23:41:54 45° WNW
Cosmos 1844 Rocket 2.8 23:37:19 10° NNW 23:42:46 63° NE 23:42:46 63° NE
CZ-4B R/B 4.3 23:45:37 13° NNE 23:45:37 13° NNE 23:46:27 10° NNE
Meteor 1-22 Rocket 4.2 23:45:41 80° NE 23:45:41 80° NE 23:51:04 10° NNE
Cosmos 1844 4.0 23:41:17 10° NNW 23:46:53 54° NE 23:46:55 54° ENE
Nadezhda 4 Rocket 3.9 23:40:48 10° N 23:47:10 74° E 23:47:23 73° E
H-2A R/B 3.2 23:48:47 32° W 23:48:54 32° W 23:53:21 10° NNW
Cosmos 2360 Rocket 2.2 23:53:36 73° NNE 23:53:36 73° NNE 23:58:43 10° NNE
Cosmos 1980 Rocket 4.5 23:49:00 10° W 23:53:26 23° NW 23:57:55 10° N
